User: anonymous   Login
Location: Caltech
(34.1382°N, 118.1253°W)
Time: 09:54:33
(UTC-08:00)
Language:

Cosmos-2242 - Orbit

View from above orbital plane
View from above orbital plane
View from above satellite
View from above satellite

Ground track
Ground track

The orbit data is extracted from the following two-line orbital elements,

1 22626U 93024A   16039.78835024  .00000875  00000-0  94053-4 0  9997
2 22626  82.5243 147.8036 0018181 325.0924  34.9099 14.87338516232655
Epoch (UTC): 08 February 2016 18:55:13
Eccentricity: 0.0018181
inclination: 82.5243°
perigee height: 593 km
apogee height: 619 km
right ascension of ascending node: 147.8036°
argument of perigee: 325.0924°
revolutions per day: 14.87338516
mean anomaly at epoch: 34.9099°
orbit number at epoch: 23265

The dashed part of the orbit path shows where the satellite is in the earth's shadow,  

DLR